Skip Page Navigation
NASA JPL Caltech
NASA Logo - Jet Propulsion Laboratory + View the NASA Portal
+ Center for Near-Earth Object Studies
JPL Home Earth Solar System Stars & Galaxies Technology
JPL Solar System Dynamics
BODIES ORBITS EPHEMERIDES TOOLS PHYSICAL DATA DISCOVERY FAQ SITE MAP
JPL Small-Body Database Browser
Search: [ help ]  
120551 (1995 BX10)
Classification: Main-belt Asteroid          SPK-ID: 2120551
Ephemeris | Orbit Diagram | Orbital Elements | Mission Design | Physical Parameters | Discovery Circumstances | Close-Approach Data ]

[ show orbit diagram ]
Orbital Elements at Epoch 2459200.5 (2020-Dec-17.0) TDB
Reference: JPL 23 (heliocentric ecliptic J2000)
 Element Value Uncertainty (1-sigma)   Units 
e .1260562191096836 4.0246e-08  
a 3.061526801866022 2.9261e-08 au
q 2.67560230851983 1.1681e-07 au
i 11.81516373596974 4.2542e-06 deg
node 124.0698507806889 2.6108e-05 deg
peri 159.3249607319306 3.6113e-05 deg
M 162.920406592533 2.8088e-05 deg
tp 2458315.020502292199
(2018-Jul-15.52050229)
0.00014858 TDB
period 1956.615661855453
5.36
2.8051e-05
7.68e-08
d
yr
n .183991167513508 2.6378e-09 deg/d
Q 3.447451295212214 3.295e-08 au
  Orbit Determination Parameters
   # obs. used (total)      560  
   data-arc span      9486 days (25.97 yr)  
   first obs. used      1995-01-29  
   last obs. used      2021-01-18  
   planetary ephem.      DE431  
   SB-pert. ephem.      SB431-N16  
   condition code      0  
   norm. resid. RMS      .56723  
   source      ORB  
   producer      Otto Matic  
   solution date      2021-Feb-24 09:25:19  

Additional Information
 Earth MOID = 1.66084 au 
 Jupiter MOID = 1.76655 au 
 T_jup = 3.189 
[ show covariance matrix ]

Ephemeris | Orbit Diagram | Orbital Elements | Mission Design | Physical Parameters | Discovery Circumstances | Close-Approach Data ]

Physical Parameter Table
Parameter Symbol Value Units Sigma Reference Notes
absolute magnitude H 14.8   n/a MPO453676  

120551 (1995 BX10)          Discovered 1995-Jan-29 by Spacewatch at Kitt Peak
Reference: 20060314/Numbers.arcLast Updated: 2006-03-23

[ show close-approach data ]
Alternate Designations
 1995 BX10 = 2003 UM298 
Ephemeris | Orbit Diagram | Orbital Elements | Mission Design | Physical Parameters | Discovery Circumstances | Close-Approach Data ]
ABOUT SSD CREDITS/AWARDS PRIVACY/COPYRIGHT GLOSSARY LINKS
FirstGov 2021-Mar-02 21:21 UT
(server date/time)  
NASA Home Page
Site Manager:   Ryan S. Park
Webmaster  Alan B. Chamberlin